Location: Coupvray
(48.8929°N, 2.7967°E)
Time: 21:26:58
(UTC+00:00)

Cosmos 724 - Pass Details

Date: 29 October 2020
Orbit: 851 x 943 km, 65.6° (Epoch: 01 December)

Event Time Altitude Azimuth Distance (km) Brightness Sun altitude
Exits shadow 01:40:48 13° 21° (NNE) 2,398 7.0 -45.9°
Drops below altitude 10° 01:41:37 10° 27° (NNE) 2,612 7.2 -45.8°
Sets 01:44:46 0° 42° (NE) 3,572 8.2 -45.4°
